"Time","Value","Approval","myLocation"
"2023-04-21 00:00",19.195024080896,"Approved","OW124"
"2023-04-21 01:00",19.193129695807,"Approved","OW124"
"2023-04-21 02:00",19.191835310718,"Approved","OW124"
"2023-04-21 03:00",19.1914409256291,"Approved","OW124"
"2023-04-21 04:00",19.1920465405401,"Approved","OW124"
"2023-04-21 05:00",19.1923521554511,"Approved","OW124"
"2023-04-21 06:00",19.1933577703621,"Approved","OW124"
"2023-04-21 07:00",19.1937633852731,"Approved","OW124"
"2023-04-21 08:00",19.1950690001842,"Approved","OW124"
"2023-04-21 09:00",19.1950746150952,"Approved","OW124"
"2023-04-21 10:00",19.1933802300062,"Approved","OW124"
"2023-04-21 11:00",19.1939858449172,"Approved","OW124"
"2023-04-21 12:00",19.1941914598282,"Approved","OW124"
"2023-04-21 13:00",19.1940970747392,"Approved","OW124"
"2023-04-21 14:00",19.1956026896503,"Approved","OW124"
"2023-04-21 15:00",19.1994083045613,"Approved","OW124"
"2023-04-21 16:00",19.2045139194723,"Approved","OW124"
"2023-04-21 17:00",19.2055195343833,"Approved","OW124"
"2023-04-21 18:00",19.2064251492943,"Approved","OW124"
"2023-04-21 19:00",19.2073307642054,"Approved","OW124"
"2023-04-21 20:00",19.2070363791164,"Approved","OW124"
"2023-04-21 21:00",19.2063419940274,"Approved","OW124"
"2023-04-21 22:00",19.2043476089384,"Approved","OW124"
"2023-04-21 23:00",19.2018532238494,"Approved","OW124"
"2023-04-22 00:00",19.1997588387604,"Approved","OW124"
"2023-04-22 01:00",19.1984644536715,"Approved","OW124"
"2023-04-22 02:00",19.1954700685825,"Approved","OW124"
"2023-04-22 03:00",19.1946756834935,"Approved","OW124"
"2023-04-22 04:00",19.1929812984045,"Approved","OW124"
"2023-04-22 05:00",19.1918869133155,"Approved","OW124"
"2023-04-22 06:00",19.1912925282266,"Approved","OW124"
"2023-04-22 07:00",19.1883981431376,"Approved","OW124"
"2023-04-22 08:00",19.1872037580486,"Approved","OW124"
"2023-04-22 09:00",19.1859093729596,"Approved","OW124"
"2023-04-22 10:00",19.1841149878706,"Approved","OW124"
"2023-04-22 11:00",19.1817206027817,"Approved","OW124"
"2023-04-22 12:00",19.1799262176927,"Approved","OW124"
"2023-04-22 13:00",19.1796318326037,"Approved","OW124"
"2023-04-22 14:00",19.1797374475147,"Approved","OW124"
"2023-04-22 15:00",19.1833430624257,"Approved","OW124"
"2023-04-22 16:00",19.1849486773367,"Approved","OW124"
"2023-04-22 17:00",19.1852542922478,"Approved","OW124"
"2023-04-22 18:00",19.1863599071588,"Approved","OW124"
"2023-04-22 19:00",19.1862655220698,"Approved","OW124"
"2023-04-22 20:00",19.1863711369808,"Approved","OW124"
"2023-04-22 21:00",19.1849767518918,"Approved","OW124"
"2023-04-22 22:00",19.1828823668029,"Approved","OW124"
"2023-04-22 23:00",19.1814879817139,"Approved","OW124"
"2023-04-23 00:00",19.1810935966249,"Approved","OW124"
"2023-04-23 01:00",19.1790992115359,"Approved","OW124"
"2023-04-23 02:00",19.1768048264469,"Approved","OW124"
"2023-04-23 03:00",19.175110441358,"Approved","OW124"
"2023-04-23 04:00",19.175216056269,"Approved","OW124"
"2023-04-23 05:00",19.17232167118,"Approved","OW124"
"2023-04-23 06:00",19.172227286091,"Approved","OW124"
"2023-04-23 07:00",19.171032901002,"Approved","OW124"
"2023-04-23 08:00",19.170038515913,"Approved","OW124"
"2023-04-23 09:00",19.1691441308241,"Approved","OW124"
"2023-04-23 10:00",19.1679497457351,"Approved","OW124"
"2023-04-23 11:00",19.1685553606461,"Approved","OW124"
"2023-04-23 12:00",19.1680609755571,"Approved","OW124"
"2023-04-23 13:00",19.1685665904681,"Approved","OW124"
"2023-04-23 14:00",19.1692722053792,"Approved","OW124"
"2023-04-23 15:00",19.1701778202902,"Approved","OW124"
"2023-04-23 16:00",19.1704834352012,"Approved","OW124"
"2023-04-23 17:00",19.1711890501122,"Approved","OW124"
"2023-04-23 18:00",19.1726946650232,"Approved","OW124"
"2023-04-23 19:00",19.1733002799343,"Approved","OW124"
"2023-04-23 20:00",19.1733058948453,"Approved","OW124"
"2023-04-23 21:00",19.1740115097563,"Approved","OW124"
"2023-04-23 22:00",19.1735171246673,"Approved","OW124"
"2023-04-23 23:00",19.1730227395783,"Approved","OW124"
"2023-04-24 00:00",19.1720283544893,"Approved","OW124"
"2023-04-24 01:00",19.1703339694004,"Approved","OW124"
"2023-04-24 02:00",19.1677395843114,"Approved","OW124"
"2023-04-24 03:00",19.1680451992224,"Approved","OW124"
"2023-04-24 04:00",19.1666508141334,"Approved","OW124"
"2023-04-24 05:00",19.1669564290444,"Approved","OW124"
"2023-04-24 06:00",19.1661620439555,"Approved","OW124"
"2023-04-24 07:00",19.1658676588665,"Approved","OW124"
"2023-04-24 08:00",19.1651732737775,"Approved","OW124"
"2023-04-24 09:00",19.1654788886885,"Approved","OW124"
"2023-04-24 10:00",19.1659845035995,"Approved","OW124"
"2023-04-24 11:00",19.1657901185106,"Approved","OW124"
"2023-04-24 12:00",19.1662957334216,"Approved","OW124"
"2023-04-24 13:00",19.1679013483326,"Approved","OW124"
"2023-04-24 14:00",19.1694069632436,"Approved","OW124"
"2023-04-24 15:00",19.1696125781546,"Approved","OW124"
"2023-04-24 16:00",19.1720181930656,"Approved","OW124"
"2023-04-24 17:00",19.1734238079767,"Approved","OW124"
"2023-04-24 18:00",19.1752294228877,"Approved","OW124"
"2023-04-24 19:00",19.1778350377987,"Approved","OW124"
"2023-04-24 20:00",19.1775406527097,"Approved","OW124"
"2023-04-24 21:00",19.1805462676207,"Approved","OW124"
"2023-04-24 22:00",19.1804518825318,"Approved","OW124"
"2023-04-24 23:00",19.1804574974428,"Approved","OW124"
"2023-04-25 00:00",19.1771631123538,"Approved","OW124"
"2023-04-25 01:00",19.1752687272648,"Approved","OW124"
"2023-04-25 02:00",19.1749743421758,"Approved","OW124"
"2023-04-25 03:00",19.1734799570869,"Approved","OW124"
"2023-04-25 04:00",19.1712855719979,"Approved","OW124"
"2023-04-25 05:00",19.1684911869089,"Approved","OW124"
"2023-04-25 06:00",19.1649968018199,"Approved","OW124"
"2023-04-25 07:00",19.1645024167309,"Approved","OW124"
"2023-04-25 08:00",19.1633080316419,"Approved","OW124"
"2023-04-25 09:00",19.161113646553,"Approved","OW124"
"2023-04-25 10:00",19.160819261464,"Approved","OW124"
"2023-04-25 11:00",19.161424876375,"Approved","OW124"
"2023-04-25 12:00",19.161130491286,"Approved","OW124"
"2023-04-25 13:00",19.161736106197,"Approved","OW124"
"2023-04-25 14:00",19.1625417211081,"Approved","OW124"
"2023-04-25 15:00",19.1626473360191,"Approved","OW124"
"2023-04-25 16:00",19.1682529509301,"Approved","OW124"
"2023-04-25 17:00",19.1685585658411,"Approved","OW124"
"2023-04-25 18:00",19.1685641807521,"Approved","OW124"
"2023-04-25 19:00",19.1733697956631,"Approved","OW124"
"2023-04-25 20:00",19.1747754105742,"Approved","OW124"
"2023-04-25 21:00",19.1738810254852,"Approved","OW124"
"2023-04-25 22:00",19.1787866403962,"Approved","OW124"
"2023-04-25 23:00",19.1794922553072,"Approved","OW124"
"2023-04-26 00:00",19.1818978702182,"Approved","OW124"
"2023-04-26 01:00",19.1808034851293,"Approved","OW124"
"2023-04-26 02:00",19.1817091000403,"Approved","OW124"
"2023-04-26 03:00",19.1815147149513,"Approved","OW124"
"2023-04-26 04:00",19.1814203298623,"Approved","OW124"
"2023-04-26 05:00",19.1788259447733,"Approved","OW124"
"2023-04-26 06:00",19.1766315596844,"Approved","OW124"
"2023-04-26 07:00",19.1718371745954,"Approved","OW124"
"2023-04-26 08:00",19.1707427895064,"Approved","OW124"
"2023-04-26 09:00",19.1689484044174,"Approved","OW124"
"2023-04-26 10:00",19.1667540193284,"Approved","OW124"
"2023-04-26 11:00",19.1648596342394,"Approved","OW124"
"2023-04-26 12:00",19.1634652491505,"Approved","OW124"
"2023-04-26 13:00",19.1636708640615,"Approved","OW124"
"2023-04-26 14:00",19.1625764789725,"Approved","OW124"
"2023-04-26 15:00",19.1624820938835,"Approved","OW124"
"2023-04-26 16:00",19.1630877087945,"Approved","OW124"
"2023-04-26 17:00",19.1621933237056,"Approved","OW124"
"2023-04-26 18:00",19.1604989386166,"Approved","OW124"
"2023-04-26 19:00",19.1582045535276,"Approved","OW124"
"2023-04-26 20:00",19.1584101684386,"Approved","OW124"
"2023-04-26 21:00",19.1599157833496,"Approved","OW124"
"2023-04-26 22:00",19.1610213982606,"Approved","OW124"
"2023-04-26 23:00",19.1620270131717,"Approved","OW124"
"2023-04-27 00:00",19.1619326280827,"Approved","OW124"
"2023-04-27 01:00",19.1635382429937,"Approved","OW124"
"2023-04-27 02:00",19.1664438579047,"Approved","OW124"
"2023-04-27 03:00",19.1691494728157,"Approved","OW124"
"2023-04-27 04:00",19.1696550877268,"Approved","OW124"
"2023-04-27 05:00",19.1696607026378,"Approved","OW124"
"2023-04-27 06:00",19.1713663175488,"Approved","OW124"
"2023-04-27 07:00",19.1703719324598,"Approved","OW124"
"2023-04-27 08:00",19.1697775473708,"Approved","OW124"
"2023-04-27 09:00",19.1687831622819,"Approved","OW124"
"2023-04-27 10:00",19.1688887771929,"Approved","OW124"
"2023-04-27 11:00",19.1689943921039,"Approved","OW124"
"2023-04-27 12:00",19.1708000070149,"Approved","OW124"
"2023-04-27 13:00",19.1715056219259,"Approved","OW124"
"2023-04-27 14:00",19.174011236837,"Approved","OW124"
"2023-04-27 15:00",19.176616851748,"Approved","OW124"
"2023-04-27 16:00",19.176622466659,"Approved","OW124"
"2023-04-27 17:00",19.17692808157,"Approved","OW124"
"2023-04-27 18:00",19.177133696481,"Approved","OW124"
"2023-04-27 19:00",19.178939311392,"Approved","OW124"
"2023-04-27 20:00",19.1777449263031,"Approved","OW124"
"2023-04-27 21:00",19.1777505412141,"Approved","OW124"
"2023-04-27 22:00",19.1775561561251,"Approved","OW124"
"2023-04-27 23:00",19.1776617710361,"Approved","OW124"
"2023-04-28 00:00",19.1796673859471,"Approved","OW124"
"2023-04-28 01:00",19.1780730008582,"Approved","OW124"
"2023-04-28 02:00",19.1801786157692,"Approved","OW124"
"2023-04-28 03:00",19.1786842306802,"Approved","OW124"
"2023-04-28 04:00",19.1784898455912,"Approved","OW124"
"2023-04-28 05:00",19.1800954605022,"Approved","OW124"
"2023-04-28 06:00",19.1791010754132,"Approved","OW124"
"2023-04-28 07:00",19.1799066903243,"Approved","OW124"
"2023-04-28 08:00",19.1786123052353,"Approved","OW124"
"2023-04-28 09:00",19.1799179201463,"Approved","OW124"
"2023-04-28 10:00",19.1795235350573,"Approved","OW124"
"2023-04-28 11:00",19.1794291499683,"Approved","OW124"
"2023-04-28 12:00",19.1802347648794,"Approved","OW124"
"2023-04-28 13:00",19.1798403797904,"Approved","OW124"
"2023-04-28 14:00",19.1810459947014,"Approved","OW124"
"2023-04-28 15:00",19.1844516096124,"Approved","OW124"
"2023-04-28 16:00",19.1840572245234,"Approved","OW124"
"2023-04-28 17:00",19.1851628394345,"Approved","OW124"
"2023-04-28 18:00",19.1861684543455,"Approved","OW124"
"2023-04-28 19:00",19.1871740692565,"Approved","OW124"
"2023-04-28 20:00",19.1862796841675,"Approved","OW124"
"2023-04-28 21:00",19.1857852990785,"Approved","OW124"
"2023-04-28 22:00",19.1863909139895,"Approved","OW124"
"2023-04-28 23:00",19.1870965289006,"Approved","OW124"
"2023-04-29 00:00",19.1863021438116,"Approved","OW124"
"2023-04-29 01:00",19.1857077587226,"Approved","OW124"
"2023-04-29 02:00",19.1851133736336,"Approved","OW124"
"2023-04-29 03:00",19.1849189885446,"Approved","OW124"
"2023-04-29 04:00",19.1848246034557,"Approved","OW124"
"2023-04-29 05:00",19.1854302183667,"Approved","OW124"
"2023-04-29 06:00",19.1852358332777,"Approved","OW124"
"2023-04-29 07:00",19.1842414481887,"Approved","OW124"
"2023-04-29 08:00",19.1822470630997,"Approved","OW124"
"2023-04-29 09:00",19.1805526780108,"Approved","OW124"
"2023-04-29 10:00",19.1781582929218,"Approved","OW124"
"2023-04-29 11:00",19.1772639078328,"Approved","OW124"
"2023-04-29 12:00",19.1758695227438,"Approved","OW124"
"2023-04-29 13:00",19.1762751376548,"Approved","OW124"
"2023-04-29 14:00",19.1758807525658,"Approved","OW124"
"2023-04-29 15:00",19.1779863674769,"Approved","OW124"
"2023-04-29 16:00",19.1786919823879,"Approved","OW124"
"2023-04-29 17:00",19.1790975972989,"Approved","OW124"
"2023-04-29 18:00",19.1799032122099,"Approved","OW124"
"2023-04-29 19:00",19.1793088271209,"Approved","OW124"
"2023-04-29 20:00",19.177514442032,"Approved","OW124"
"2023-04-29 21:00",19.176420056943,"Approved","OW124"
"2023-04-29 22:00",19.174825671854,"Approved","OW124"
"2023-04-29 23:00",19.173331286765,"Approved","OW124"
"2023-04-30 00:00",19.174236901676,"Approved","OW124"
"2023-04-30 01:00",19.173842516587,"Approved","OW124"
"2023-04-30 02:00",19.1718481314981,"Approved","OW124"
"2023-04-30 03:00",19.1719537464091,"Approved","OW124"
"2023-04-30 04:00",19.1714593613201,"Approved","OW124"
"2023-04-30 05:00",19.1694649762311,"Approved","OW124"
"2023-04-30 06:00",19.1684705911421,"Approved","OW124"
"2023-04-30 07:00",19.1671762060532,"Approved","OW124"
"2023-04-30 08:00",19.1656818209642,"Approved","OW124"
"2023-04-30 09:00",19.1649874358752,"Approved","OW124"
"2023-04-30 10:00",19.1630930507862,"Approved","OW124"
"2023-04-30 11:00",19.1631986656972,"Approved","OW124"
"2023-04-30 12:00",19.1630042806083,"Approved","OW124"
"2023-04-30 13:00",19.1629098955193,"Approved","OW124"
"2023-04-30 14:00",19.1631155104303,"Approved","OW124"
"2023-04-30 15:00",19.1645211253413,"Approved","OW124"
"2023-04-30 16:00",19.1628267402523,"Approved","OW124"
"2023-04-30 17:00",19.1642323551633,"Approved","OW124"
"2023-04-30 18:00",19.1651379700744,"Approved","OW124"
"2023-04-30 19:00",19.1655435849854,"Approved","OW124"
"2023-04-30 20:00",19.1623491998964,"Approved","OW124"
"2023-04-30 21:00",19.1630548148074,"Approved","OW124"
"2023-04-30 22:00",19.1633604297184,"Approved","OW124"
"2023-04-30 23:00",19.1632660446295,"Approved","OW124"
"2023-05-01 00:00",19.1624716595405,"Approved","OW124"
"2023-05-01 01:00",19.1617772744515,"Approved","OW124"
"2023-05-01 02:00",19.1621828893625,"Approved","OW124"
"2023-05-01 03:00",19.1620885042735,"Approved","OW124"
"2023-05-01 04:00",19.1614941191845,"Approved","OW124"
"2023-05-01 05:00",19.1602997340956,"Approved","OW124"
"2023-05-01 06:00",19.1602053490066,"Approved","OW124"
"2023-05-01 07:00",19.1591109639176,"Approved","OW124"
"2023-05-01 08:00",19.1579165788286,"Approved","OW124"
"2023-05-01 09:00",19.1576221937396,"Approved","OW124"
"2023-05-01 10:00",19.1568278086507,"Approved","OW124"
"2023-05-01 11:00",19.1579334235617,"Approved","OW124"
"2023-05-01 12:00",19.1576390384727,"Approved","OW124"
"2023-05-01 13:00",19.1585446533837,"Approved","OW124"
"2023-05-01 14:00",19.1614502682947,"Approved","OW124"
"2023-05-01 15:00",19.1614558832058,"Approved","OW124"
"2023-05-01 16:00",19.1619614981168,"Approved","OW124"
"2023-05-01 17:00",19.1644671130278,"Approved","OW124"
"2023-05-01 18:00",19.1659727279388,"Approved","OW124"
"2023-05-01 19:00",19.1669783428498,"Approved","OW124"
"2023-05-01 20:00",19.1654839577609,"Approved","OW124"
"2023-05-01 21:00",19.1660895726719,"Approved","OW124"
"2023-05-01 22:00",19.1644951875829,"Approved","OW124"
"2023-05-01 23:00",19.1645008024939,"Approved","OW124"
"2023-05-02 00:00",19.1647064174049,"Approved","OW124"
"2023-05-02 01:00",19.1645120323159,"Approved","OW124"
"2023-05-02 02:00",19.165317647227,"Approved","OW124"
"2023-05-02 03:00",19.164523262138,"Approved","OW124"
"2023-05-02 04:00",19.166228877049,"Approved","OW124"
"2023-05-02 05:00",19.16693449196,"Approved","OW124"
"2023-05-02 06:00",19.167940106871,"Approved","OW124"
"2023-05-02 07:00",19.1675457217821,"Approved","OW124"
"2023-05-02 08:00",19.1695513366931,"Approved","OW124"
"2023-05-02 09:00",19.1700569516041,"Approved","OW124"
"2023-05-02 10:00",19.1686625665151,"Approved","OW124"
"2023-05-02 11:00",19.1680681814261,"Approved","OW124"
"2023-05-02 12:00",19.1673737963371,"Approved","OW124"
"2023-05-02 13:00",19.1675794112482,"Approved","OW124"
"2023-05-02 14:00",19.1689850261592,"Approved","OW124"
"2023-05-02 15:00",19.1717906410702,"Approved","OW124"
"2023-05-02 16:00",19.1699962559812,"Approved","OW124"
"2023-05-02 17:00",19.1725018708922,"Approved","OW124"
"2023-05-02 18:00",19.1736074858033,"Approved","OW124"
"2023-05-02 19:00",19.1737131007143,"Approved","OW124"
"2023-05-02 20:00",19.1709187156253,"Approved","OW124"
"2023-05-02 21:00",19.1692243305363,"Approved","OW124"
"2023-05-02 22:00",19.1649299454473,"Approved","OW124"
"2023-05-02 23:00",19.1625355603584,"Approved","OW124"
"2023-05-03 00:00",19.1604411752694,"Approved","OW124"
"2023-05-03 01:00",19.1608467901804,"Approved","OW124"
"2023-05-03 02:00",19.1601524050914,"Approved","OW124"
"2023-05-03 03:00",19.1577580200024,"Approved","OW124"
"2023-05-03 04:00",19.1568636349134,"Approved","OW124"
"2023-05-03 05:00",19.1564692498245,"Approved","OW124"
"2023-05-03 06:00",19.1551748647355,"Approved","OW124"
"2023-05-03 07:00",19.1557804796465,"Approved","OW124"
"2023-05-03 08:00",19.1556860945575,"Approved","OW124"
"2023-05-03 09:00",19.1534917094685,"Approved","OW124"
"2023-05-03 10:00",19.1512973243796,"Approved","OW124"
"2023-05-03 11:00",19.1504029392906,"Approved","OW124"
"2023-05-03 12:00",19.1491085542016,"Approved","OW124"
"2023-05-03 13:00",19.1501141691126,"Approved","OW124"
"2023-05-03 14:00",19.1520197840236,"Approved","OW124"
"2023-05-03 15:00",19.1516253989347,"Approved","OW124"
"2023-05-03 16:00",19.1526310138457,"Approved","OW124"
"2023-05-03 17:00",19.1550366287567,"Approved","OW124"
"2023-05-03 18:00",19.1558422436677,"Approved","OW124"
"2023-05-03 19:00",19.1545478585787,"Approved","OW124"
"2023-05-03 20:00",19.1544534734897,"Approved","OW124"
"2023-05-03 21:00",19.1536590884008,"Approved","OW124"
"2023-05-03 22:00",19.1524647033118,"Approved","OW124"
"2023-05-03 23:00",19.1516703182228,"Approved","OW124"
"2023-05-04 00:00",19.1518759331338,"Approved","OW124"
"2023-05-04 01:00",19.1511815480448,"Approved","OW124"
"2023-05-04 02:00",19.1513871629559,"Approved","OW124"
"2023-05-04 03:00",19.1503927778669,"Approved","OW124"
"2023-05-04 04:00",19.1519983927779,"Approved","OW124"
"2023-05-04 05:00",19.1536040076889,"Approved","OW124"
"2023-05-04 06:00",19.1555096225999,"Approved","OW124"
"2023-05-04 07:00",19.1559152375109,"Approved","OW124"
"2023-05-04 08:00",19.156920852422,"Approved","OW124"
"2023-05-04 09:00",19.156226467333,"Approved","OW124"
"2023-05-04 10:00",19.157832082244,"Approved","OW124"
"2023-05-04 11:00",19.159937697155,"Approved","OW124"
"2023-05-04 12:00",19.161043312066,"Approved","OW124"
"2023-05-04 13:00",19.1629489269771,"Approved","OW124"
"2023-05-04 14:00",19.1631545418881,"Approved","OW124"
"2023-05-04 15:00",19.1647601567991,"Approved","OW124"
"2023-05-04 16:00",19.1676657717101,"Approved","OW124"
"2023-05-04 17:00",19.1678713866211,"Approved","OW124"
"2023-05-04 18:00",19.1686770015322,"Approved","OW124"
"2023-05-04 19:00",19.1696826164432,"Approved","OW124"
"2023-05-04 20:00",19.1694882313542,"Approved","OW124"
"2023-05-04 21:00",19.1681938462652,"Approved","OW124"
"2023-05-04 22:00",19.1666994611762,"Approved","OW124"
"2023-05-04 23:00",19.1643050760872,"Approved","OW124"
"2023-05-05 00:00",19.1621106909983,"Approved","OW124"
"2023-05-05 01:00",19.1603163059093,"Approved","OW124"
"2023-05-05 02:00",19.1598219208203,"Approved","OW124"
"2023-05-05 03:00",19.1582275357313,"Approved","OW124"
"2023-05-05 04:00",19.1577331506423,"Approved","OW124"
"2023-05-05 05:00",19.1577387655534,"Approved","OW124"
"2023-05-05 06:00",19.1572443804644,"Approved","OW124"
"2023-05-05 07:00",19.1574499953754,"Approved","OW124"
"2023-05-05 08:00",19.1543556102864,"Approved","OW124"
"2023-05-05 09:00",19.1547612251974,"Approved","OW124"
"2023-05-05 10:00",19.1548668401085,"Approved","OW124"
"2023-05-05 11:00",19.1546724550195,"Approved","OW124"
"2023-05-05 12:00",19.1552780699305,"Approved","OW124"
"2023-05-05 13:00",19.1565836848415,"Approved","OW124"
"2023-05-05 14:00",19.1574892997525,"Approved","OW124"
"2023-05-05 15:00",19.1571949146635,"Approved","OW124"
"2023-05-05 16:00",19.1589005295746,"Approved","OW124"
"2023-05-05 17:00",19.1611061444856,"Approved","OW124"
"2023-05-05 18:00",19.1633117593966,"Approved","OW124"
"2023-05-05 19:00",19.1636173743076,"Approved","OW124"
"2023-05-05 20:00",19.1596229892186,"Approved","OW124"
"2023-05-05 21:00",19.1587286041297,"Approved","OW124"
"2023-05-05 22:00",19.1579342190407,"Approved","OW124"
"2023-05-05 23:00",19.1559398339517,"Approved","OW124"
"2023-05-06 00:00",19.1533454488627,"Approved","OW124"
"2023-05-06 01:00",19.1549510637737,"Approved","OW124"
"2023-05-06 02:00",19.1525566786847,"Approved","OW124"
"2023-05-06 03:00",19.1546622935958,"Approved","OW124"
"2023-05-06 04:00",19.1536679085068,"Approved","OW124"
"2023-05-06 05:00",19.1551735234178,"Approved","OW124"
"2023-05-06 06:00",19.1537791383288,"Approved","OW124"
"2023-05-06 07:00",19.1555847532398,"Approved","OW124"
"2023-05-06 08:00",19.1567903681509,"Approved","OW124"
"2023-05-06 09:00",19.1551959830619,"Approved","OW124"
"2023-05-06 10:00",19.1556015979729,"Approved","OW124"
"2023-05-06 11:00",19.1559072128839,"Approved","OW124"
"2023-05-06 12:00",19.1550128277949,"Approved","OW124"
"2023-05-06 13:00",19.157318442706,"Approved","OW124"
"2023-05-06 14:00",19.158424057617,"Approved","OW124"
"2023-05-06 15:00",19.161129672528,"Approved","OW124"
"2023-05-06 16:00",19.163635287439,"Approved","OW124"
"2023-05-06 17:00",19.19114090235,"Approved","OW124"
"2023-05-06 18:00",19.1736465172611,"Approved","OW124"
"2023-05-06 19:00",19.1730521321721,"Approved","OW124"
"2023-05-06 20:00",19.1731577470831,"Approved","OW124"
"2023-05-06 21:00",19.2019633619941,"Approved","OW124"
"2023-05-06 22:00",19.2137689769051,"Approved","OW124"
"2023-05-06 23:00",19.2184745918161,"Approved","OW124"
"2023-05-07 00:00",19.2240802067272,"Approved","OW124"
"2023-05-07 01:00",19.2277858216382,"Approved","OW124"
"2023-05-07 02:00",19.2293914365492,"Approved","OW124"
"2023-05-07 03:00",19.2333970514602,"Approved","OW124"
"2023-05-07 04:00",19.2381026663712,"Approved","OW124"
"2023-05-07 05:00",19.2106082812823,"Approved","OW124"
"2023-05-07 06:00",19.2040138961933,"Approved","OW124"
"2023-05-07 07:00",19.2000195111043,"Approved","OW124"
"2023-05-07 08:00",19.1982251260153,"Approved","OW124"
"2023-05-07 09:00",19.1966307409263,"Approved","OW124"
"2023-05-07 10:00",19.1943363558373,"Approved","OW124"
"2023-05-07 11:00",19.1931419707484,"Approved","OW124"
"2023-05-07 12:00",19.1933475856594,"Approved","OW124"
"2023-05-07 13:00",19.1933532005704,"Approved","OW124"
"2023-05-07 14:00",19.1925588154814,"Approved","OW124"
"2023-05-07 15:00",19.1943644303924,"Approved","OW124"
"2023-05-07 16:00",19.1949700453035,"Approved","OW124"
"2023-05-07 17:00",19.1958756602145,"Approved","OW124"
"2023-05-07 18:00",19.1967812751255,"Approved","OW124"
"2023-05-07 19:00",19.1979868900365,"Approved","OW124"
"2023-05-07 20:00",19.1980925049475,"Approved","OW124"
"2023-05-07 21:00",19.1969981198586,"Approved","OW124"
"2023-05-07 22:00",19.2322037347696,"Approved","OW124"
"2023-05-07 23:00",19.2392093496806,"Approved","OW124"
"2023-05-08 00:00",19.2228149645916,"Approved","OW124"
"2023-05-08 01:00",19.2117205795026,"Approved","OW124"
"2023-05-08 02:00",19.2061261944136,"Approved","OW124"
"2023-05-08 03:00",19.2024318093247,"Approved","OW124"
"2023-05-08 04:00",19.2367374242357,"Approved","OW124"
"2023-05-08 05:00",19.2441430391467,"Approved","OW124"
"2023-05-08 06:00",19.2146486540577,"Approved","OW124"
"2023-05-08 07:00",19.2102542689687,"Approved","OW124"
"2023-05-08 08:00",19.2083598838798,"Approved","OW124"
"2023-05-08 09:00",19.2064654987908,"Approved","OW124"
"2023-05-08 10:00",19.2053711137018,"Approved","OW124"
"2023-05-08 11:00",19.2045767286128,"Approved","OW124"
"2023-05-08 12:00",19.2042823435238,"Approved","OW124"
"2023-05-08 13:00",19.2042879584349,"Approved","OW124"
"2023-05-08 14:00",19.2055935733459,"Approved","OW124"
"2023-05-08 15:00",19.2072991882569,"Approved","OW124"
"2023-05-08 16:00",19.2072048031679,"Approved","OW124"
"2023-05-08 17:00",19.2185104180789,"Approved","OW124"
"2023-05-08 18:00",19.2475160329899,"Approved","OW124"
"2023-05-08 19:00",19.258321647901,"Approved","OW124"